sat.trackr.live / text

‹ back to catalog

STARLINK-35297

NORAD 66010 · 2025-232F

PAYLOAD ACTIVE UNKNOWN

§ Identity

Operator
Country
US
Launch date
2025-10-16
Launch site
AFETR
Launch vehicle
Mass (kg)
RCS (m²)

Purposes: comms

External: N2YO · Heavens-Above · Gunter

§ Orbital elements

Epoch: 2026-09-20T12:10:57.058176Z

Period
93.85 min
Inclination
53.1586°
Eccentricity
0.0001079
Mean motion
15.34440322 rev/d
Perigee alt
461.8 km
Apogee alt
463.3 km
Semi-major
6,840.7 km
B*
5.2756e-4
RAAN
275.4128°
Arg perigee
74.2380°
Mean anomaly
285.8742°
Rev number
5,330

§ Raw data

STARLINK-352971 66010U 25232F   26263.50760484  .00017513  00000+0  52756-3 0  99942 66010  53.1586 275.4128 0001079  74.2380 285.8742 15.34440322 53308

JSON: /api/v1/satellites/66010 · /tle

For live sub-satellite position, see the globe view (requires WebGL).

§ Visibility from observer

Set your observer location to see the next 7 days of passes ≥ 10°. The values pass through the URL so the page stays shareable.

No JS? Fill the form by hand. The geolocation button needs JavaScript.